Theta_e
352 354 354 354 355 355 354 356 355 355 354 354 353 353 353 353 352 353 357 357 358 358 359 361 362 362 361 362 361 364 366 365 366 366 367 367 367 366 366 367 366 364 366 366 364 365 366 364 364 366 367 365 363 363 361 363 366 363 364 363 360 361 357 356 352 353 359 364 359 358 361 364 360 368 366 363 365 368 364 371 374 371 369 369 370
352 353 354 354 354 354 354 354 355 354 353 353 353 352 352 352 353 354 353 355 357 356 358 358 360 361 360 361 363 363 366 367 364 364 365 365 365 364 365 367 366 365 366 366 366 365 366 366 364 364 368 365 362 360 360 358 358 358 361 361 359 360 362 357 355 354 354 360 362 366 364 365 360 368 367 364 364 368 367 369 370 369 369 369 368
351 353 353 354 354 353 353 353 354 353 352 352 351 350 351 351 353 352 350 350 355 355 356 356 359 361 360 361 363 363 365 364 364 364 364 365 364 363 362 364 364 363 363 364 363 365 364 364 363 364 364 363 363 362 360 360 359 359 359 361 361 360 362 363 358 355 354 355 362 360 361 365 363 364 367 367 369 369 369 368 364 365 369 369 368
350 352 352 352 353 353 354 353 352 352 350 351 350 351 350 350 352 351 350 349 350 354 355 356 359 361 359 360 362 362 363 362 362 363 364 365 364 364 365 365 364 364 362 363 362 363 363 363 362 362 364 363 363 363 363 363 362 362 362 363 365 362 364 365 363 359 357 355 360 361 362 362 363 366 367 368 367 367 367 368 369 368 366 366 366
348 350 351 350 351 352 352 352 351 351 350 350 350 350 350 350 350 349 349 349 349 351 354 356 358 359 356 358 360 360 361 362 362 360 361 363 364 363 364 366 365 365 364 364 364 364 364 362 362 364 366 363 363 363 363 364 363 362 361 363 364 363 364 364 364 363 360 357 358 363 367 365 365 368 369 364 364 366 370 371 367 366 369 366 365
347 349 349 349 350 351 351 351 351 351 350 350 350 350 350 350 349 349 349 348 349 349 351 352 354 356 357 357 359 360 361 362 362 362 359 361 362 362 363 364 363 365 365 364 364 365 363 363 363 364 364 362 361 362 365 365 365 362 362 362 363 364 364 365 365 364 363 360 361 359 364 362 363 365 368 366 362 360 363 366 370 369 369 366 364
347 347 348 348 350 350 350 351 351 351 351 351 351 351 350 350 350 349 349 349 348 348 348 351 353 354 357 356 356 359 360 360 362 363 361 362 363 362 360 362 362 362 363 362 362 363 363 362 363 363 363 363 362 361 363 365 364 363 364 365 364 364 363 363 364 363 361 360 359 360 361 363 364 359 365 368 365 363 361 360 361 368 370 368 366
348 348 348 349 350 350 351 352 352 353 353 354 352 351 350 350 351 351 350 349 348 348 347 348 351 352 354 355 357 359 360 360 361 362 362 361 361 361 361 360 359 360 361 361 361 360 361 361 359 361 363 365 364 364 365 363 365 364 363 365 365 364 360 360 362 360 359 358 357 355 357 360 363 365 366 366 363 364 367 362 358 360 364 370 369
348 348 348 349 351 353 353 352 353 354 354 354 353 351 351 351 351 351 352 350 348 348 348 348 349 350 352 354 355 356 355 356 357 359 360 360 360 358 359 359 359 359 359 358 359 361 360 360 359 359 363 365 363 362 362 363 363 363 365 366 365 363 363 361 361 360 360 358 357 359 359 359 360 361 359 360 359 357 362 364 361 363 365 364 368
349 348 347 349 353 355 355 355 354 354 354 354 355 353 352 351 350 350 350 351 351 351 350 349 348 349 350 352 353 352 353 354 351 341 345 359 360 357 358 360 360 358 359 359 357 358 358 358 357 362 360 360 357 353 348 349 353 358 362 367 366 364 362 361 360 359 359 356 355 356 354 354 355 359 360 360 363 365 364 365 362 362 364 364 365
348 348 348 350 353 355 355 355 356 355 355 355 356 356 354 352 352 352 351 351 351 353 351 349 348 347 347 348 349 349 349 349 338 332 333 337 354 359 358 360 361 360 357 359 358 355 356 359 359 361 363 360 360 349 347 345 345 345 347 354 362 365 363 360 359 360 358 357 356 357 355 356 357 359 360 359 361 362 362 363 361 361 360 357 355
348 350 350 354 355 354 353 355 356 355 356 355 355 356 355 354 354 354 352 350 353 351 350 349 350 348 347 347 347 347 348 340 331 329 330 330 337 354 355 355 354 356 356 354 355 356 355 355 357 358 361 364 364 365 357 347 342 343 343 344 347 350 353 361 361 360 360 358 357 357 356 356 358 362 359 358 361 362 365 364 363 361 360 358 358
355 352 352 354 355 356 357 356 355 355 356 356 357 356 356 355 354 353 351 352 351 351 351 349 350 350 348 349 347 347 347 336 329 327 327 327 327 339 349 351 350 351 353 355 354 356 357 357 356 358 357 361 362 362 366 367 348 341 342 343 344 342 339 339 345 361 362 361 359 359 359 360 360 362 363 363 366 362 362 360 363 363 362 359 359
355 357 355 355 356 357 357 356 356 357 358 358 358 356 355 354 353 352 352 353 353 351 350 350 350 351 350 349 350 349 348 338 327 325 325 324 326 331 348 348 350 351 353 354 354 355 358 359 358 357 359 362 364 362 364 365 367 365 360 359 360 358 346 338 336 338 348 359 361 360 364 367 363 365 368 369 364 360 359 358 362 361 362 361 365
352 355 358 359 357 357 357 356 356 357 356 355 356 356 355 355 355 353 352 352 353 353 350 350 350 351 350 349 349 348 347 333 325 322 321 321 324 328 347 348 349 352 354 355 357 356 358 360 360 357 359 362 363 363 363 364 366 365 365 364 364 364 365 363 359 358 357 357 360 362 365 367 368 369 369 370 367 366 364 364 363 363 363 364 363
347 350 353 355 357 358 358 356 357 355 352 351 353 354 354 356 356 356 355 353 354 354 354 352 351 351 351 350 349 348 349 330 324 321 320 320 322 338 346 350 350 351 353 356 357 359 359 359 360 359 359 361 359 346 353 363 364 363 363 364 364 365 364 362 349 352 363 363 364 362 362 364 353 368 367 365 365 368 367 364 364 361 359 358 357
343 346 351 353 354 354 354 354 355 353 351 350 350 351 352 355 356 356 355 354 352 353 354 353 355 353 353 352 351 351 351 337 322 319 318 318 323 344 348 349 352 352 352 356 358 359 359 360 361 359 359 361 352 335 336 350 360 361 361 361 362 361 361 364 346 337 337 334 334 335 334 334 332 330 328 330 350 357 361 357 356 358 357 354 355
339 341 343 346 348 349 351 352 353 353 353 350 350 351 354 355 356 356 355 353 352 354 355 355 356 356 354 353 353 352 352 342 321 317 316 316 327 346 350 350 352 353 354 355 357 359 360 358 361 361 360 360 342 331 331 346 359 359 360 360 359 359 360 362 364 361 333 329 329 330 331 331 331 330 330 329 328 339 356 353 356 357 356 356 352
333 333 336 339 343 345 348 352 353 353 353 353 352 351 353 354 356 356 354 355 355 356 357 356 356 357 356 355 349 352 354 346 321 318 316 315 327 348 351 351 351 352 352 353 356 357 359 358 356 354 357 353 335 329 327 343 358 359 360 360 357 357 359 364 364 364 365 361 358 355 352 344 348 352 354 337 335 340 352 356 357 355 354 354 354
332 332 335 338 339 341 344 349 353 353 352 353 354 353 353 353 353 354 356 356 356 356 357 357 357 357 358 358 357 356 355 357 350 317 315 313 317 347 353 351 351 351 353 352 353 357 358 360 354 334 331 331 329 325 323 326 355 360 360 358 358 357 361 363 366 366 366 363 364 364 364 365 365 365 365 363 357 352 352 356 358 358 357 357 357
333 331 332 333 335 337 341 344 348 353 355 355 355 356 358 358 356 357 354 355 356 357 357 358 357 358 358 359 359 358 358 358 357 318 314 313 314 324 351 352 353 353 354 354 353 354 356 358 359 341 325 324 323 321 319 318 332 359 361 360 360 361 357 363 365 363 363 363 362 362 361 362 363 362 361 363 361 361 356 355 358 359 360 358 357
332 331 330 332 333 335 339 344 347 348 352 356 357 357 356 357 357 357 359 357 354 358 359 359 358 358 359 360 361 361 357 346 361 327 316 313 312 313 344 352 353 354 354 355 354 354 355 357 361 346 325 322 320 319 316 317 319 350 360 336 335 334 360 362 364 364 362 361 359 358 359 360 359 360 359 360 359 360 363 362 359 360 363 363 361
331 331 330 330 333 336 338 341 344 346 348 351 353 355 357 354 352 354 355 355 351 355 360 360 359 358 360 360 361 362 363 360 335 352 318 313 311 311 320 338 333 356 354 354 355 355 358 359 360 346 325 318 317 316 316 316 320 337 328 327 327 329 341 356 358 359 359 359 359 358 358 359 358 358 358 360 361 365 364 365 365 365 365 365 365
329 330 331 330 331 334 337 340 342 346 347 349 350 350 353 355 353 352 354 353 350 350 356 359 358 356 355 357 358 360 362 362 344 331 338 313 312 310 312 318 327 348 354 354 356 356 357 359 355 333 321 314 313 315 316 317 334 322 319 322 325 331 349 353 353 356 356 355 355 356 358 359 359 359 359 362 362 367 368 368 368 369 369 366 367
326 328 329 330 330 332 335 338 340 343 345 347 349 350 349 351 351 353 353 352 350 350 353 358 358 357 356 355 357 359 360 362 363 345 326 320 313 311 312 313 316 321 348 353 356 356 341 331 329 324 321 315 313 315 317 316 315 319 318 319 330 345 349 351 353 356 354 355 354 356 357 359 360 361 364 366 367 367 366 365 367 368 367 367 368
325 326 327 329 329 330 332 334 337 339 342 345 346 349 351 351 350 351 352 353 353 354 353 357 357 357 356 356 356 358 360 362 362 363 339 331 321 314 313 313 316 317 329 347 337 334 330 325 323 322 322 325 337 343 346 346 322 317 320 326 341 346 349 351 353 352 354 354 355 355 357 360 360 364 366 366 363 361 362 362 363 362 363 363 361
325 325 326 327 328 329 330 331 334 337 341 344 347 349 351 353 353 351 350 350 354 353 354 356 356 355 355 355 357 358 359 360 362 362 362 356 349 338 324 324 315 316 326 339 337 345 344 339 344 334 335 332 333 336 338 342 343 335 335 338 344 348 351 353 354 355 354 355 355 357 358 361 363 362 362 360 358 359 361 359 359 359 360 361 359
323 324 324 326 327 329 330 332 334 336 339 343 345 346 348 350 352 354 355 356 356 355 356 355 355 356 356 357 358 358 358 360 361 361 360 361 358 354 345 339 337 334 335 340 345 348 351 341 339 350 351 351 348 349 350 353 352 350 349 347 347 351 351 350 353 358 359 360 359 359 358 360 358 358 357 356 357 358 360 358 357 356 353 351 343
323 323 323 324 325 328 330 332 333 334 335 338 340 344 345 347 349 353 358 360 358 357 357 358 360 361 361 359 359 359 360 360 362 340 362 338 354 358 355 348 345 343 334 327 346 349 351 352 352 351 351 349 349 351 352 353 353 355 356 356 354 354 354 353 353 353 356 356 356 357 356 358 358 358 356 355 355 356 362 359 357 352 352 349 344
322 322 323 323 324 326 328 329 330 332 332 333 335 337 337 325 334 346 348 339 330 323 325 353 360 362 361 362 365 361 360 363 337 326 322 321 320 324 329 329 326 338 330 319 336 348 349 349 351 351 350 350 350 350 351 352 354 354 356 345 354 355 354 353 354 354 357 355 356 354 355 355 356 356 354 352 355 357 352 342 348 348 346 345 343
320 321 323 324 323 324 325 325 328 331 332 333 334 334 337 340 316 313 320 328 326 321 315 312 318 325 351 360 356 335 333 328 322 322 315 313 313 313 313 314 314 315 317 333 338 343 348 348 348 349 350 352 350 352 352 352 352 354 355 355 355 354 351 355 355 353 353 353 354 355 355 355 354 355 353 352 353 352 350 347 347 346 345 346 345
318 319 320 322 323 323 323 325 327 329 331 334 335 336 337 337 341 327 314 314 316 311 311 312 311 313 316 326 345 361 335 318 315 317 310 309 310 310 309 309 308 308 310 318 343 343 346 349 349 350 351 350 350 351 352 353 354 355 356 355 355 355 354 355 356 358 356 355 354 353 355 351 352 353 353 350 346 348 347 346 346 344 345 346 344
317 317 319 321 322 322 324 325 326 328 330 331 332 333 332 332 333 335 338 319 313 310 310 308 308 308 308 308 309 317 325 328 318 310 308 305 306 307 308 306 306 303 308 332 345 347 348 349 350 352 351 350 353 352 353 353 354 355 356 356 356 357 358 361 361 359 356 356 354 352 351 351 350 351 347 346 346 345 346 346 348 346 343 342 341
317 316 317 319 320 322 324 325 326 327 329 329 330 330 331 332 333 334 335 338 344 330 312 305 304 306 305 304 307 308 308 309 309 309 305 307 305 306 306 318 301 301 318 344 346 348 350 350 349 352 353 352 352 352 352 354 354 356 357 358 359 361 365 366 360 354 351 351 350 350 349 351 348 348 348 348 347 346 345 346 349 347 343 342 342
316 318 321 322 321 322 322 323 323 324 325 326 327 330 331 334 336 336 336 337 340 343 348 354 324 306 324 319 308 304 305 307 308 307 304 304 305 303 308 334 334 328 328 340 348 349 350 350 351 351 353 353 353 353 353 355 356 355 357 359 360 360 363 361 356 354 351 349 348 348 348 347 349 346 347 347 346 346 345 346 347 347 347 345 343
315 315 316 318 318 319 320 321 322 323 322 324 326 328 329 331 333 335 335 337 340 342 345 352 357 332 308 308 312 307 303 302 305 306 305 302 302 307 339 345 345 343 338 339 342 346 349 352 352 353 354 353 356 355 355 355 356 357 358 357 356 358 360 358 353 352 352 351 349 348 343 347 347 347 347 346 347 348 348 348 348 347 348 347 345
316 315 316 317 318 318 318 319 320 321 322 323 324 325 328 330 332 335 338 340 341 344 346 351 352 357 335 337 321 308 305 303 303 303 303 303 301 323 348 351 351 351 345 344 343 345 347 350 352 354 354 353 354 356 357 357 357 359 350 359 360 360 359 358 355 352 352 350 351 349 348 348 349 349 347 346 346 347 348 348 348 346 345 343 338
315 315 316 316 317 317 317 318 319 321 322 324 325 327 330 333 335 337 338 339 341 342 344 346 343 348 352 354 337 337 323 303 302 304 302 300 311 331 343 350 353 353 353 351 348 347 348 351 353 353 355 355 355 356 357 358 357 359 359 360 360 360 347 354 350 355 355 354 351 350 348 348 350 350 346 347 347 347 347 348 349 346 338 334 336
316 315 315 315 315 316 317 319 321 321 322 325 327 329 329 332 336 339 339 341 342 342 345 346 348 348 351 352 342 333 328 337 340 344 340 337 335 337 342 347 351 354 355 356 352 349 350 351 352 354 356 357 356 358 358 357 359 358 359 358 357 357 355 355 354 353 352 352 351 352 352 352 351 351 351 349 347 348 349 347 343 341 342 338 337
315 316 315 315 316 318 319 321 321 321 323 323 325 327 328 329 331 335 338 340 341 342 343 344 345 347 350 348 342 337 342 346 348 349 349 346 343 342 344 347 350 353 355 358 357 355 351 352 354 354 355 356 357 358 358 358 359 358 359 356 356 355 356 355 354 352 351 351 350 351 351 351 351 352 352 350 350 349 346 341 338 343 347 343 340
314 315 317 315 316 317 318 319 319 320 321 321 322 323 323 325 327 330 333 337 339 341 342 343 344 341 322 311 308 318 341 346 348 349 350 350 349 346 345 347 348 351 352 354 355 355 354 354 355 354 355 357 356 358 359 358 356 355 354 354 354 352 355 356 354 352 352 350 349 349 351 353 352 351 348 347 338 342 345 344 341 341 341 341 339
314 314 314 315 316 317 317 317 317 318 318 319 319 319 321 322 323 325 328 332 336 338 340 342 333 324 311 301 299 299 323 335 333 333 335 331 328 326 324 322 323 328 334 340 345 347 350 352 352 352 353 354 354 354 354 355 355 353 352 351 352 351 351 351 352 351 349 348 348 350 352 350 348 346 345 334 343 342 342 341 341 339 340 339 338
314 314 314 315 316 316 316 315 314 314 315 316 316 317 318 317 318 319 321 323 324 324 325 322 319 319 313 304 306 308 319 316 316 314 313 313 312 311 310 310 311 315 319 321 323 331 335 334 332 334 336 333 333 340 348 353 355 353 351 350 351 349 346 346 346 345 346 346 346 343 344 343 341 341 338 337 338 338 339 339 338 338 337 339 338
313 313 314 315 314 314 314 313 312 313 313 314 314 314 314 314 315 315 315 315 316 315 314 313 313 312 311 309 308 309 310 308 307 307 308 307 306 305 305 306 307 309 310 312 313 317 321 321 318 315 313 312 311 311 314 321 331 344 349 348 344 341 341 340 339 340 340 339 337 337 338 336 335 336 334 335 336 335 334 334 334 335 336 336 335
311 312 312 313 313 312 312 312 311 311 312 312 311 310 311 310 310 310 310 309 309 309 309 308 308 307 306 305 305 305 305 305 304 304 304 304 303 303 303 303 304 304 305 306 307 307 308 308 309 309 308 307 307 307 308 309 311 317 326 334 334 331 333 334 336 337 337 335 333 333 332 332 333 334 333 334 334 333 332 332 333 327 328 329 330
310 310 311 311 311 311 310 309 310 309 309 309 308 307 307 307 307 307 306 306 306 305 305 305 304 303 303 302 302 302 302 302 301 302 301 301 301 300 300 301 301 302 302 303 304 304 305 305 305 306 306 306 307 306 307 307 309 313 317 320 323 323 325 329 333 333 333 332 330 329 329 329 328 328 328 327 326 326 326 325 326 327 327 325 324
309 309 309 309 309 308 308 308 308 308 307 307 306 306 305 305 305 305 305 304 303 302 302 301 301 300 299 299 299 299 300 299 298 298 298 298 298 299 299 300 300 299 300 300 301 301 301 302 303 304 304 304 304 304 305 306 309 310 312 314 316 318 320 324 327 328 328 328 327 326 325 325 324 323 322 322 321 320 321 322 322 322 322 324 321
307 308 308 308 307 306 306 305 305 305 304 304 305 304 304 303 303 303 303 302 301 301 300 299 299 298 298 297 297 297 297 296 296 296 296 295 296 296 297 297 298 298 298 299 298 299 299 299 300 301 302 302 302 302 303 304 306 306 307 307 309 311 311 312 319 320 321 322 323 322 322 321 320 320 321 321 320 319 319 319 319 320 322 322 323
306 306 306 306 305 305 304 304 304 302 302 302 302 302 302 301 301 301 300 300 299 299 298 298 298 298 297 297 297 296 296 295 294 294 294 294 294 294 295 295 296 296 296 296 297 297 298 299 299 300 299 300 300 301 301 303 305 305 305 304 303 300 299 303 309 314 310 316 318 319 319 318 317 316 316 316 316 316 316 316 316 316 317 318 318
305 306 305 305 304 304 304 303 302 302 302 301 301 300 300 300 300 300 299 298 297 297 297 297 297 296 296 295 295 295 294 294 293 293 293 293 293 294 294 294 293 294 294 294 295 295 296 298 299 299 299 298 299 298 299 301 302 302 302 300 296 294 295 298 301 305 312 315 315 315 315 315 315 316 316 315 315 315 314 312 313 313 314 314 314
306 305 304 304 303 303 302 302 301 301 300 300 300 299 299 298 298 298 297 297 296 296 297 296 296 296 296 295 296 294 294 294 295 296 296 296 296 296 296 296 296 295 295 295 295 295 295 295 296 297 298 298 298 298 298 298 298 297 294 294 292 293 296 301 305 299 303 306 313 312 311 312 312 312 313 313 313 312 311 311 312 312 313 312 311
Wind_Speed
15 13 13 14 14 15 15 13 14 13 13 12 12 11 11 11 11 10 8 9 8 9 9 8 8 8 8 7 8 7 7 7 7 7 7 7 7 7 7 6 7 6 6 6 5 5 6 6 6 5 4 5 5 5 4 4 4 4 3 3 4 3 4 4 6 8 6 3 4 6 6 6 6 4 6 7 7 6 7 6 6 6 6 6 6
14 13 13 12 15 15 15 13 13 12 14 13 13 12 11 11 11 9 10 10 10 10 10 9 9 9 8 8 8 8 7 7 7 7 7 8 8 6 7 8 8 8 6 7 6 5 6 6 7 6 5 6 6 7 6 6 5 5 4 4 4 4 4 5 6 7 8 5 5 4 5 3 6 4 5 7 8 7 7 6 5 5 5 6 6
15 13 14 13 15 14 14 14 13 15 15 14 15 14 13 12 10 11 12 11 10 11 10 11 9 9 9 8 8 8 8 8 8 8 8 8 9 8 8 8 8 8 8 8 8 7 7 7 8 7 5 6 6 7 7 6 6 5 6 5 5 6 5 5 5 7 8 8 5 6 4 4 5 6 6 5 6 5 6 6 6 5 4 5 6
13 14 14 14 15 14 14 13 15 15 16 14 15 15 13 12 11 12 12 11 10 11 11 11 10 9 10 9 9 9 9 9 8 8 9 9 9 9 8 8 8 9 9 8 8 8 8 8 8 7 6 7 7 6 6 6 5 5 6 5 5 5 5 5 6 6 7 8 6 6 6 6 6 5 5 5 6 5 5 6 5 5 5 5 5
13 13 15 16 15 15 15 15 15 16 16 14 16 15 15 13 11 13 12 12 12 10 10 10 10 10 10 11 11 10 10 10 9 9 9 9 9 9 9 9 9 9 9 8 8 8 8 9 8 7 7 7 7 7 6 7 6 6 6 5 5 5 4 4 5 5 6 8 8 6 5 6 6 5 4 5 6 6 5 5 5 5 5 5 5
16 15 15 15 15 16 15 15 16 17 17 16 16 15 14 13 13 12 13 13 12 11 11 10 10 12 12 11 11 11 10 10 10 10 10 9 9 9 9 9 9 9 9 9 9 9 9 9 9 8 8 8 8 7 6 7 6 6 7 6 5 4 5 5 5 6 6 7 8 8 6 6 6 5 4 3 6 7 6 5 5 4 4 5 5
15 15 16 17 15 16 16 16 15 16 15 15 14 13 14 14 14 13 13 14 13 13 12 12 11 12 12 12 12 11 11 11 10 10 10 10 9 9 9 9 9 9 9 10 9 9 10 10 9 9 9 9 9 9 7 7 6 7 6 6 5 5 5 5 5 6 6 7 7 8 7 6 5 6 3 2 5 6 6 6 5 3 3 3 5
14 15 14 15 15 16 16 16 15 14 14 13 13 14 13 13 13 13 12 14 14 14 14 14 12 11 12 12 12 10 10 10 10 10 10 10 10 10 10 10 10 10 10 10 10 10 10 10 11 10 10 10 9 9 8 7 6 6 6 5 5 5 6 5 5 6 6 7 7 7 7 6 5 6 5 4 5 4 4 4 7 6 5 3 3
14 14 14 14 14 14 14 14 13 13 13 12 13 13 13 13 12 12 12 13 12 14 14 14 13 12 12 11 11 10 10 10 10 10 10 11 11 11 11 11 11 10 10 10 10 10 10 10 11 11 10 10 11 9 8 6 6 6 6 5 6 6 6 6 6 6 6 7 7 7 7 7 6 6 5 4 5 6 5 5 6 7 6 6 4
13 14 15 15 13 13 12 11 11 12 12 12 13 13 13 13 13 13 13 13 12 11 12 12 13 13 12 12 11 10 10 9 11 15 13 10 11 10 10 10 11 10 10 10 10 11 11 11 10 12 11 11 12 12 13 12 11 10 7 6 6 6 6 6 6 6 7 7 8 7 8 7 6 6 6 5 5 5 6 5 6 7 7 7 5
14 15 15 15 13 12 11 12 11 11 12 12 11 12 13 12 12 12 12 12 12 11 12 13 13 13 14 13 13 12 11 11 15 15 16 16 11 10 10 10 10 10 11 10 10 11 11 11 10 11 11 12 12 14 13 14 14 14 14 12 9 7 7 8 8 8 7 8 7 7 8 8 8 7 7 6 5 6 6 5 6 6 6 7 8
14 14 14 12 11 11 12 12 12 12 12 12 12 12 11 11 11 12 12 13 12 12 13 14 13 14 13 14 14 14 13 15 16 16 17 17 15 12 10 10 10 10 11 11 10 10 11 10 10 9 9 11 10 10 13 15 15 15 15 14 14 14 12 10 8 8 8 8 8 8 8 8 7 6 7 6 5 6 5 5 6 6 7 7 6
7 11 12 11 11 10 10 10 12 12 12 12 11 10 11 12 12 12 14 14 12 12 13 14 14 14 14 14 15 15 14 15 16 17 17 18 18 15 12 11 12 12 11 11 12 10 9 9 10 9 9 11 11 11 9 9 14 17 15 15 14 15 15 16 15 12 9 9 10 9 9 8 8 8 7 6 5 6 6 6 6 6 7 7 7
7 7 8 10 8 8 7 9 9 9 8 7 7 9 11 13 14 14 12 11 12 13 14 15 14 13 14 14 13 14 15 14 17 18 18 18 18 15 13 14 13 13 12 12 11 11 11 10 10 10 10 9 9 10 10 10 8 8 9 10 10 13 16 17 18 18 15 12 11 11 10 8 9 8 7 5 6 7 7 8 7 8 7 8 8
8 6 7 2 5 6 7 7 7 4 3 5 7 8 11 11 12 12 12 13 13 13 14 15 14 14 15 15 14 14 14 17 15 18 18 19 18 15 12 13 13 12 12 12 12 12 11 11 11 12 11 10 9 9 10 9 9 8 9 9 10 10 11 12 12 12 11 11 13 13 12 11 10 10 9 7 8 8 8 9 9 8 8 9 9
5 8 5 4 4 3 3 5 6 8 10 11 11 12 12 12 12 11 11 12 12 12 12 13 14 15 15 15 15 15 16 17 16 17 19 18 17 11 11 12 13 13 12 13 12 11 12 12 11 12 12 11 10 13 12 9 9 10 10 10 10 10 10 11 12 12 11 10 11 12 11 11 8 9 8 7 7 6 7 8 8 8 7 7 7
4 5 5 1 2 4 2 7 8 8 10 10 12 14 15 15 13 12 13 14 14 13 14 14 14 14 15 15 16 15 15 15 17 18 18 19 13 10 11 11 12 13 14 12 12 12 12 12 12 11 12 12 12 14 14 13 11 11 11 11 10 10 10 9 13 17 15 15 14 13 14 14 12 12 12 10 8 7 7 9 9 7 6 7 7
7 7 6 3 1 2 4 6 7 8 8 11 12 11 10 10 12 12 13 15 16 16 14 13 14 14 15 16 16 16 16 15 17 18 19 19 16 12 10 11 12 12 12 13 11 11 12 15 13 13 12 12 12 15 15 13 12 12 11 11 12 12 11 10 7 8 16 17 16 16 16 15 13 13 13 13 10 5 7 9 9 7 8 8 8
8 9 9 8 7 5 3 5 6 8 9 10 11 10 11 11 10 10 13 14 16 15 14 13 13 13 15 17 16 17 16 15 17 19 20 19 17 11 11 10 11 12 12 13 12 11 11 13 17 15 13 13 14 14 16 14 12 12 12 12 12 13 11 9 9 8 7 7 8 9 10 12 11 10 10 15 13 11 10 11 9 9 9 9 9
10 9 9 9 8 7 6 4 5 7 9 10 10 10 10 11 12 13 14 13 14 15 14 14 15 14 14 15 14 16 17 15 13 20 20 20 21 13 10 11 13 14 13 12 11 11 11 11 13 18 19 17 15 15 16 18 14 12 12 11 12 13 10 9 10 8 8 8 8 7 8 7 7 7 8 8 9 11 11 10 10 9 9 9 9
11 10 9 9 9 8 7 7 6 6 7 10 11 10 10 11 10 13 16 16 16 14 15 15 14 15 14 14 15 16 15 16 14 20 20 21 22 19 11 14 14 13 12 12 12 12 11 11 12 14 19 19 18 17 16 18 17 13 12 12 13 12 9 9 8 8 8 8 8 8 8 7 7 8 8 7 7 8 9 10 10 9 9 9 10
10 10 10 10 10 9 8 8 8 7 6 5 6 9 10 10 8 9 10 10 15 16 15 14 14 14 14 14 14 15 14 16 14 16 21 21 21 24 15 15 15 13 12 12 13 13 13 11 10 12 17 19 19 18 18 16 18 11 14 15 16 13 11 9 8 7 7 7 8 7 7 6 7 7 7 7 7 7 8 8 9 10 9 9 10
11 10 10 11 10 10 8 9 8 6 6 7 8 8 7 10 12 11 11 12 15 18 15 14 14 14 13 12 12 13 14 12 17 12 17 21 22 23 24 19 17 14 14 14 14 13 11 12 12 13 15 18 18 19 17 18 13 13 18 17 16 16 10 7 8 8 8 8 7 7 7 7 8 8 7 7 7 8 7 8 7 8 9 9 11
10 10 9 10 11 11 11 10 9 7 7 7 8 9 9 8 9 10 10 9 11 14 16 15 16 17 18 16 16 15 13 13 13 19 15 21 21 23 24 25 19 14 15 15 13 13 13 13 12 14 16 17 17 17 17 16 13 18 19 19 18 11 5 8 7 9 8 8 8 9 8 8 8 8 8 8 7 6 6 6 7 9 9 9 10
10 10 11 11 11 11 11 10 10 8 7 7 7 8 10 9 9 8 9 9 11 14 18 16 16 17 17 17 16 15 15 13 12 14 20 19 22 23 24 25 23 20 16 15 14 14 13 15 14 14 14 14 16 16 14 16 20 18 17 17 12 6 8 8 9 8 9 9 9 9 9 9 9 9 7 6 6 5 6 7 7 8 9 10 9
10 11 12 12 11 10 12 12 11 10 10 8 8 8 8 9 9 7 7 9 10 13 16 16 17 16 16 16 17 16 15 12 13 11 12 17 18 22 24 24 24 23 21 17 18 18 16 14 15 14 12 12 9 8 8 10 16 19 16 10 7 9 9 9 9 10 10 10 10 10 9 8 8 7 7 6 6 7 6 6 6 8 8 7 7
10 10 11 12 12 11 11 10 9 10 10 8 6 7 8 8 8 8 8 9 11 14 16 17 18 18 17 17 16 15 15 14 12 12 11 10 11 12 14 14 18 17 14 14 15 12 13 12 9 9 10 13 15 13 13 12 10 9 8 9 10 10 11 11 11 10 10 10 9 9 8 8 7 6 6 6 7 7 7 7 7 8 8 5 4
10 10 11 11 11 11 10 13 12 9 9 8 7 7 7 8 8 9 11 12 13 16 18 18 17 16 15 14 13 14 14 13 13 13 13 12 11 11 11 10 11 11 12 11 11 13 12 10 10 7 7 7 8 8 10 9 10 10 9 10 11 12 13 13 11 9 9 9 9 8 8 7 8 8 7 7 7 7 8 8 8 7 6 5 5
11 11 11 10 10 9 9 9 9 9 8 8 8 8 8 8 8 9 11 12 15 17 17 17 15 14 14 13 12 12 12 13 14 14 13 13 12 11 11 12 11 10 15 15 9 7 7 9 9 10 10 11 11 11 10 9 9 10 11 10 10 10 10 9 10 10 10 9 10 9 9 8 9 7 7 7 8 8 5 5 4 4 3 4 7
10 11 9 9 10 10 9 8 9 9 10 9 9 10 11 12 10 11 12 14 17 17 14 16 17 12 13 13 12 13 13 14 13 10 13 13 13 14 13 12 14 12 13 16 11 8 9 10 11 11 12 12 13 12 12 11 10 11 11 12 11 11 10 10 10 10 9 10 9 9 9 9 8 7 8 11 9 8 6 6 7 6 6 7 7
8 9 9 9 10 10 10 10 10 9 9 9 8 9 11 9 13 17 17 17 20 25 23 23 24 20 13 14 13 14 17 16 10 6 12 14 14 16 16 15 14 17 12 11 8 10 10 11 12 13 13 13 13 13 11 11 11 11 11 11 11 12 11 10 10 9 9 9 9 10 9 8 9 8 10 10 10 8 7 8 7 6 8 6 6
8 8 9 10 11 11 9 10 11 11 10 9 8 9 9 11 12 9 13 17 18 20 24 25 23 21 22 19 14 13 14 16 16 9 12 14 16 16 16 15 14 13 15 17 9 11 12 12 12 12 12 13 13 12 12 12 12 12 11 11 11 11 11 11 10 9 9 10 9 9 8 10 10 10 9 9 7 8 9 10 10 9 7 5 6
10 9 9 11 12 12 10 10 10 10 10 10 9 8 10 10 11 13 13 11 16 19 21 21 21 21 18 19 19 18 19 13 10 13 13 13 15 16 16 15 12 11 13 9 11 10 11 11 12 11 12 12 12 12 11 12 12 12 11 11 10 10 10 10 9 9 9 9 8 9 10 10 11 10 10 9 8 9 10 12 11 8 7 7 6
10 8 8 10 10 10 10 10 10 10 9 9 9 8 9 10 11 11 13 15 13 11 13 15 17 17 17 17 18 19 19 19 15 9 13 15 15 15 11 5 8 14 15 12 11 12 11 11 12 12 11 11 11 11 11 11 11 11 10 10 10 9 8 7 7 8 9 9 11 12 10 10 9 10 10 10 9 9 10 10 10 10 10 9 9
9 11 15 13 9 10 11 10 9 8 9 10 10 9 10 9 9 9 9 11 11 12 12 9 11 17 16 15 16 18 18 18 17 12 9 12 10 9 11 6 4 4 7 10 11 11 12 11 11 11 10 10 10 11 11 11 10 10 10 10 10 10 8 8 9 9 10 10 11 11 10 10 10 10 10 10 9 10 11 11 11 10 9 9 9
9 8 8 10 10 9 9 8 8 8 9 10 10 10 9 11 12 11 10 11 12 13 13 11 8 7 17 19 16 12 12 13 15 14 12 11 12 17 9 9 9 9 10 11 12 12 12 12 11 11 10 10 10 10 11 11 11 10 10 10 10 10 10 9 8 10 11 11 11 11 10 10 10 9 10 9 10 10 10 11 10 10 9 8 7
8 8 8 7 8 8 8 8 9 9 10 11 11 12 10 11 11 11 10 9 11 11 11 8 8 7 3 4 7 6 7 10 13 13 12 11 17 14 11 12 12 11 10 11 10 10 11 11 11 11 10 11 11 11 10 11 10 9 10 10 10 10 10 9 10 10 11 12 11 11 11 11 10 10 10 10 9 9 9 10 10 9 9 7 5
10 9 8 7 8 9 9 8 9 11 10 11 12 11 11 10 10 10 11 12 11 11 11 8 6 8 9 6 5 3 4 5 7 5 6 8 8 9 11 12 12 12 11 10 10 11 11 11 11 11 11 11 11 11 10 10 10 10 9 10 10 10 10 9 9 10 11 11 11 10 11 11 10 10 10 9 9 9 9 9 8 6 5 7 6
9 11 11 11 11 9 8 8 8 9 9 10 10 10 11 10 9 9 11 10 10 9 8 9 9 7 6 2 4 4 6 3 6 7 8 8 9 9 10 11 12 13 12 10 8 10 10 11 11 11 10 10 10 10 10 10 10 10 10 9 10 10 10 10 10 11 12 12 11 10 10 10 10 9 8 8 9 9 8 7 6 7 8 6 5
9 9 8 9 9 9 9 9 8 8 9 9 8 9 9 9 9 8 9 10 10 8 7 9 9 8 4 2 4 5 6 6 7 7 7 8 8 9 9 10 11 11 11 10 9 10 11 11 10 10 10 10 10 10 10 10 10 9 9 10 10 11 11 10 10 12 12 10 9 8 9 10 9 7 7 7 8 8 7 6 7 8 8 8 7
9 9 9 9 9 9 9 9 8 8 8 9 9 8 8 8 8 7 8 9 9 9 9 9 9 2 5 7 8 3 5 7 7 8 9 9 7 7 7 6 5 5 4 5 6 7 8 9 9 10 9 9 9 9 9 9 10 10 11 10 10 11 11 10 10 11 10 9 9 10 10 8 7 8 8 8 7 8 7 6 7 7 7 7 7
9 8 9 8 8 8 8 8 8 10 9 9 9 8 7 8 7 6 7 8 8 7 8 6 3 4 7 13 7 4 1 4 6 6 6 7 6 5 4 3 2 1 3 3 2 3 4 6 7 7 8 9 9 10 10 11 11 11 13 15 15 14 13 11 10 9 9 8 8 9 9 8 7 7 6 6 7 6 5 6 7 7 7 7 8
10 9 9 9 8 7 7 7 7 7 7 8 7 6 7 7 6 5 6 6 4 4 3 3 3 4 6 10 11 9 6 6 7 6 6 5 5 5 5 4 4 4 3 2 2 3 3 3 3 2 2 2 3 3 5 8 9 11 13 15 12 9 9 9 9 8 7 7 7 6 6 5 5 5 5 5 4 6 7 6 6 6 7 7 8
8 9 9 9 7 6 6 6 6 7 6 8 9 7 6 6 6 5 5 5 5 4 3 3 4 5 6 8 8 9 8 8 8 7 7 7 6 6 6 6 6 6 6 7 6 5 3 1 1 1 1 1 1 2 3 5 6 5 8 9 7 8 8 9 8 8 7 7 7 8 7 7 7 7 6 5 6 7 6 7 7 7 6 5 5
6 8 8 7 6 5 5 5 6 6 7 7 6 5 5 5 5 5 5 4 5 5 5 5 6 6 7 9 9 9 9 8 9 8 8 8 8 7 7 6 6 7 7 7 7 7 6 4 2 1 1 1 2 2 0 1 1 1 2 2 4 5 5 7 8 7 8 8 8 8 6 6 6 6 5 4 3 4 4 4 5 6 5 4 4
6 7 7 6 5 4 4 4 5 5 5 5 4 4 4 4 4 5 4 5 5 5 5 6 7 8 8 9 9 10 9 9 9 9 9 9 9 8 8 9 8 8 8 7 7 8 8 7 7 5 4 3 2 2 2 2 3 3 2 2 3 4 4 5 7 8 9 10 9 9 10 9 7 6 7 6 5 5 4 4 5 5 5 5 5
6 6 6 5 4 3 3 3 3 4 4 3 3 3 3 4 5 5 6 6 6 6 6 7 7 8 8 9 9 10 10 9 9 9 10 10 10 10 9 10 11 11 9 8 8 8 9 9 9 8 7 6 5 5 3 1 3 2 4 5 5 6 5 6 8 10 11 12 12 11 11 11 10 9 9 8 7 6 6 6 6 7 6 5 5
5 5 4 4 3 2 1 1 2 3 2 3 3 3 4 4 5 5 5 5 6 6 6 7 7 8 9 9 10 10 10 10 10 10 10 11 10 9 10 11 11 10 10 10 12 12 12 12 12 10 9 9 9 7 5 3 2 4 5 4 3 2 5 6 9 10 7 6 6 10 12 12 11 10 9 10 9 8 8 8 7 7 7 6 5
4 4 4 2 2 1 1 1 1 1 2 2 2 3 4 5 5 5 5 5 6 6 7 7 7 8 8 9 10 10 10 11 11 11 11 10 9 9 10 12 13 12 11 10 10 12 13 13 13 12 11 11 9 8 8 7 5 5 5 4 7 13 14 13 10 12 15 12 10 9 10 10 9 8 10 11 10 9 9 9 9 9 8 7 7
2 3 2 2 2 2 2 3 2 2 3 3 3 4 5 6 6 6 6 6 7 7 7 8 8 8 8 9 10 11 11 11 11 11 10 10 10 10 11 11 13 13 12 11 10 10 11 12 12 12 12 10 9 9 9 8 8 7 8 9 12 15 15 16 16 17 14 11 10 9 9 10 9 8 7 8 8 10 10 10 9 9 8 8 7
1 2 2 3 3 4 4 4 4 4 3 3 4 5 6 7 7 7 7 7 7 7 8 8 8 8 9 9 10 11 12 11 10 9 8 8 7 7 8 8 8 8 10 11 11 11 11 12 11 10 11 13 12 12 12 12 10 11 14 19 19 17 16 15 14 17 20 14 11 10 9 8 9 9 8 8 8 9 9 9 9 9 9 8 8
Wind_Direction
195 195 192 197 196 195 197 196 200 201 203 201 202 203 203 204 205 209 195 201 197 200 204 209 209 212 218 219 222 218 210 208 206 208 211 217 223 230 234 224 230 237 233 235 236 237 240 247 251 249 242 252 254 257 259 250 241 246 242 238 251 224 223 244 275 287 291 273 282 294 310 310 309 301 310 322 327 333 320 318 317 323 325 326 329
196 192 194 197 200 200 202 201 202 202 204 203 204 204 206 203 203 197 201 201 198 204 205 209 210 211 216 219 219 219 213 207 210 210 213 217 223 221 224 224 227 235 237 237 230 230 231 239 249 250 238 248 261 262 262 263 256 257 239 243 251 249 212 254 271 284 292 291 281 297 297 277 297 304 312 319 325 323 319 318 319 325 325 326 332
195 192 193 194 199 201 201 202 198 200 204 206 208 209 207 207 201 203 209 208 201 206 205 208 205 204 214 216 213 217 215 214 212 212 213 214 219 226 226 221 224 230 230 231 234 233 234 238 245 247 242 247 250 258 261 258 263 263 265 259 256 258 242 226 257 275 287 293 296 294 298 294 293 305 308 306 303 298 303 314 321 321 314 318 328
197 194 194 200 201 200 201 203 201 202 206 209 211 211 209 206 202 208 212 213 204 202 205 205 200 201 209 212 213 216 214 214 215 214 215 216 218 221 224 224 227 230 233 233 232 231 237 242 247 246 242 246 252 257 253 246 245 245 249 247 245 256 255 230 230 259 278 286 289 289 300 301 293 290 298 299 297 299 297 302 293 294 310 319 323
208 203 199 202 203 204 206 204 205 206 208 210 212 210 209 206 202 207 211 216 215 205 201 201 201 202 209 211 211 213 215 214 215 221 221 220 219 222 222 223 226 230 232 233 233 233 236 242 246 242 235 243 249 247 245 234 234 240 245 243 240 241 236 233 235 236 256 272 284 282 282 279 281 283 284 303 306 295 288 281 300 301 299 313 322
202 202 201 203 206 207 207 206 208 208 208 211 212 210 208 208 204 203 206 212 213 212 204 202 203 205 210 212 211 211 210 209 211 218 222 221 219 222 223 225 228 229 231 231 230 230 237 241 242 238 238 241 250 250 245 238 234 235 240 241 241 236 235 237 234 239 250 264 276 286 273 283 292 287 286 289 303 308 304 287 264 266 293 315 334
197 200 199 202 204 207 206 207 207 208 208 211 211 210 209 209 208 207 204 208 210 213 212 207 205 207 208 212 215 213 210 209 209 212 217 219 218 220 226 227 229 231 234 235 236 234 236 240 240 237 237 239 246 249 247 243 239 244 236 236 235 232 240 244 236 245 253 264 271 272 280 273 268 289 277 266 283 274 289 304 301 274 262 305 322
195 198 201 203 204 206 207 207 208 208 208 207 209 210 210 209 210 209 205 207 211 214 214 211 209 209 211 212 215 214 210 210 209 211 213 214 216 220 222 228 232 233 236 237 238 240 239 240 242 239 235 234 237 244 244 248 247 251 245 237 232 234 250 251 246 250 256 260 265 277 277 283 275 266 269 262 278 268 244 290 305 308 306 282 283
197 197 201 205 207 207 206 206 208 206 204 203 205 208 209 209 207 207 205 208 211 215 216 217 214 212 215 215 216 216 216 216 214 211 212 214 217 221 222 224 227 233 236 240 238 237 240 242 243 243 236 229 228 233 242 243 251 253 250 234 232 237 242 247 246 248 251 257 264 264 267 268 268 269 269 264 272 295 303 294 290 293 300 304 287
197 204 206 207 206 201 197 200 205 206 204 206 207 207 210 209 208 207 209 210 212 213 215 216 217 215 214 215 217 219 220 221 215 210 210 214 213 221 222 223 226 229 232 237 241 238 239 242 244 240 234 226 224 226 230 233 232 246 255 240 230 232 237 243 245 244 249 254 256 261 266 265 269 268 272 274 281 279 283 284 289 304 304 297 294
206 205 210 209 205 199 197 201 202 200 203 207 206 206 210 212 212 212 211 209 210 207 206 211 216 220 220 220 218 219 223 225 217 208 211 215 220 220 219 221 221 224 229 233 239 242 243 241 244 234 221 226 229 226 228 226 226 230 239 247 252 245 242 241 243 243 246 252 256 256 260 268 268 274 272 279 282 282 286 286 287 294 299 309 310
221 213 214 208 202 199 204 203 201 206 204 207 207 206 208 210 212 209 208 210 206 209 212 215 217 219 221 222 222 222 224 223 212 207 209 212 215 224 227 230 230 228 229 232 235 238 240 242 240 240 232 229 232 223 218 222 224 226 230 234 235 240 244 246 248 247 244 250 255 255 263 263 269 265 269 273 276 282 276 277 272 279 287 287 287
303 240 225 217 207 203 204 203 205 209 208 207 206 204 205 211 216 217 217 216 214 210 215 215 215 217 221 222 224 225 229 220 207 206 207 208 210 216 232 235 233 233 231 228 230 232 235 237 241 238 242 218 224 236 236 219 213 221 227 231 236 234 235 238 242 247 257 257 259 260 253 263 267 263 255 259 271 273 280 274 271 268 270 273 279
9 339 251 221 207 208 208 214 217 221 218 222 216 212 212 217 222 223 223 216 213 213 216 218 219 217 219 223 225 228 230 225 204 205 207 208 208 206 227 232 235 237 234 231 230 230 227 228 231 236 237 231 223 227 230 234 230 214 217 225 231 229 226 231 236 240 242 250 256 259 259 248 256 263 263 249 253 267 275 280 284 283 276 275 288
29 33 30 356 203 194 180 179 196 198 218 239 242 232 232 233 230 227 226 219 213 214 218 220 220 218 219 220 224 229 233 229 204 203 206 207 207 202 222 229 236 238 235 232 230 230 228 225 229 236 237 231 223 216 226 228 229 231 229 228 227 232 230 226 225 226 225 229 237 246 254 254 255 260 263 252 253 259 267 277 286 288 289 289 280
30 3 27 62 69 82 143 188 194 171 184 190 202 210 221 228 232 230 234 234 230 227 222 223 223 222 222 223 226 231 235 221 204 202 204 207 201 202 217 224 231 236 236 233 230 228 228 228 229 232 235 235 217 198 214 230 235 234 234 236 239 237 237 231 226 224 228 230 232 242 250 254 254 260 272 277 275 273 278 277 272 275 271 274 277
23 284 273 353 75 103 172 218 222 209 210 206 208 210 205 206 212 220 231 235 237 231 227 223 223 225 225 222 224 229 235 217 200 201 202 202 190 209 214 221 226 231 237 236 232 228 227 226 225 232 234 232 218 193 204 212 233 236 238 240 242 245 246 240 212 217 224 232 241 250 257 262 264 264 266 264 257 278 283 281 272 259 256 267 276
353 331 332 347 143 186 238 252 249 231 211 215 220 229 231 224 211 200 216 230 236 235 232 230 228 226 225 225 222 226 233 221 195 199 200 194 191 204 210 215 224 227 234 234 234 232 228 222 221 227 231 233 213 194 198 197 223 230 234 238 242 244 246 246 241 210 216 226 231 238 246 254 256 259 261 257 241 220 235 250 260 264 264 267 270
341 333 329 326 319 297 250 222 218 224 226 221 220 220 223 225 224 219 223 226 232 235 232 234 232 229 229 229 222 225 235 227 193 198 198 193 193 209 211 215 222 229 231 234 231 233 234 221 217 223 227 229 215 198 193 193 217 224 228 235 242 246 246 245 237 236 219 214 224 229 241 240 239 237 238 234 223 207 223 238 257 257 259 262 273
335 327 318 315 314 303 296 273 226 219 222 228 228 219 222 231 230 228 231 231 233 231 230 230 233 233 232 230 229 225 232 237 201 195 194 193 192 202 209 211 224 226 228 231 233 230 228 232 217 213 221 225 220 207 196 195 212 221 227 234 240 243 247 242 238 240 246 247 256 243 247 254 247 226 228 228 207 200 214 222 235 243 248 256 257
328 326 318 314 308 299 291 280 262 234 214 215 218 218 217 224 235 242 235 238 235 232 233 234 234 236 235 234 234 231 232 232 218 188 194 190 194 198 209 216 221 223 224 224 229 234 233 229 237 207 207 217 221 217 204 201 209 221 225 232 233 240 249 253 248 231 250 257 256 253 254 252 251 253 248 239 233 211 207 213 227 234 238 253 260
325 324 319 311 304 296 291 285 282 277 263 243 217 213 215 211 208 235 256 256 246 237 237 235 236 238 239 235 235 234 230 222 232 192 191 190 192 197 210 218 215 218 221 229 230 234 233 233 230 208 198 208 215 218 214 206 210 218 229 231 236 239 244 247 263 264 258 253 256 256 256 253 256 259 257 254 250 242 233 221 214 226 223 232 243
319 317 316 309 303 296 288 282 278 275 275 271 259 240 209 200 209 211 223 240 246 248 234 234 236 239 239 238 236 234 231 225 216 210 188 192 191 198 209 219 208 211 223 227 227 230 227 228 232 214 197 204 210 215 214 212 207 222 229 233 235 237 240 253 257 258 254 253 253 256 252 253 257 254 251 252 252 249 246 248 250 223 219 226 236
315 312 310 309 306 301 295 291 283 279 276 271 266 262 247 224 205 201 204 213 232 245 253 247 245 247 247 246 248 245 235 231 209 210 199 190 195 199 208 217 213 214 220 231 230 230 230 227 228 218 206 205 209 213 214 207 213 219 223 230 235 237 241 242 242 243 247 251 249 253 246 247 249 249 245 243 253 256 246 249 249 241 248 252 244
314 311 309 306 303 299 297 293 290 282 267 258 261 255 251 250 236 212 197 200 223 239 251 251 247 246 246 245 247 247 243 231 232 201 199 189 196 201 208 211 217 215 220 230 232 234 231 225 223 217 211 206 210 214 218 215 218 223 221 224 226 229 225 230 236 234 237 238 238 238 243 238 239 243 247 249 245 249 248 246 240 244 255 251 252
315 310 306 303 301 301 297 295 291 289 280 263 258 255 245 234 235 238 224 210 218 237 248 248 247 245 245 246 244 245 242 238 231 219 189 199 200 204 206 208 213 214 219 229 226 229 229 221 219 217 215 215 211 214 217 213 212 218 221 208 210 219 221 221 221 225 233 237 234 233 236 240 240 241 233 229 239 240 238 239 241 255 245 233 242
304 305 301 301 300 299 296 291 295 294 287 277 264 262 261 256 246 223 223 230 230 239 242 244 244 244 244 243 242 241 242 237 229 226 211 197 201 202 205 214 216 216 222 234 239 237 232 231 228 213 225 215 214 222 226 226 205 204 205 202 212 215 215 215 217 217 225 231 234 233 234 239 241 228 222 224 231 233 231 230 238 243 242 229 233
303 305 301 300 297 299 295 292 291 289 294 295 291 284 276 272 259 248 240 236 234 235 237 239 239 238 237 234 234 235 233 230 228 224 221 213 204 192 190 192 193 195 210 218 220 228 231 222 215 212 219 224 220 227 228 224 219 209 205 200 207 213 217 218 220 230 233 233 238 236 237 228 228 229 229 227 231 229 217 216 221 219 209 143 168
299 298 299 297 293 292 291 294 293 295 297 294 292 287 279 273 275 279 264 249 244 244 246 243 238 235 232 231 225 224 226 229 228 219 217 210 207 207 200 201 195 196 209 205 199 213 217 222 219 212 214 221 225 226 225 220 219 219 218 211 211 211 210 207 213 218 219 217 225 224 231 226 232 226 221 236 236 235 228 230 241 243 258 214 227
297 296 297 296 293 293 294 295 296 294 293 293 293 286 265 253 264 270 274 286 295 281 263 255 254 250 246 240 229 227 225 227 236 210 212 213 211 213 216 207 199 206 206 189 200 217 213 220 221 220 219 220 226 228 227 223 222 221 220 216 219 222 216 212 217 219 212 215 223 226 229 230 232 227 236 244 242 226 196 191 212 196 211 212 217
287 289 290 288 291 293 294 293 293 291 290 292 290 290 295 270 231 236 248 255 260 268 269 263 261 260 258 259 244 229 245 261 266 193 200 210 211 216 221 218 198 206 162 128 187 213 220 217 219 222 222 223 225 226 224 223 222 223 223 217 215 221 221 223 221 216 214 217 220 226 224 220 234 232 233 231 229 218 221 225 229 222 216 205 198
282 283 289 291 295 292 288 290 294 296 295 294 295 301 300 303 305 271 239 247 254 253 256 255 253 249 247 244 251 257 240 238 242 215 198 201 209 214 218 216 212 189 170 168 184 208 218 221 222 221 217 221 223 224 224 225 223 222 223 223 219 214 215 220 210 206 214 219 218 216 218 235 235 236 235 234 219 227 230 233 225 224 216 208 214
274 278 280 288 293 294 292 291 290 290 292 294 296 296 295 298 295 303 301 260 248 256 258 253 248 248 245 247 243 241 253 260 236 214 203 204 208 214 215 211 201 165 146 175 211 216 219 220 226 223 217 220 221 222 223 226 227 225 223 223 220 211 209 212 194 212 220 222 220 230 230 228 228 230 231 229 225 230 229 231 225 213 200 210 213
270 268 273 281 286 289 290 291 293 294 294 295 292 285 283 280 281 284 287 297 292 263 247 245 247 246 246 239 239 242 247 253 259 232 209 210 208 211 202 177 133 167 181 199 204 219 218 224 226 226 221 220 222 222 224 227 227 227 223 220 222 219 211 192 192 211 226 223 222 229 225 226 224 227 234 237 235 236 237 237 233 220 210 205 205
265 266 272 277 280 285 289 291 291 291 293 291 287 286 284 280 274 272 275 278 281 284 294 281 241 226 235 238 232 233 238 242 243 237 220 220 211 155 125 132 154 202 230 234 222 219 222 222 225 221 221 218 217 219 224 225 223 221 221 223 225 222 214 201 206 214 217 218 220 221 222 222 224 224 230 232 231 232 240 244 245 236 227 210 205
264 264 270 276 279 280 282 285 287 287 289 286 283 278 275 278 276 276 274 268 267 272 278 272 284 243 225 237 239 231 229 234 238 230 218 197 165 149 178 202 206 206 202 207 215 219 222 225 223 222 217 221 218 217 218 222 222 225 224 225 224 219 217 209 200 214 216 220 221 220 219 221 221 221 225 230 231 234 240 243 242 239 233 228 218
264 265 266 269 275 277 278 282 284 283 279 278 278 276 271 265 264 269 270 264 262 267 267 279 287 276 189 212 212 219 215 219 223 223 213 183 170 180 212 211 216 210 204 205 204 212 217 223 223 222 219 217 217 217 219 223 225 224 221 222 223 218 219 209 202 209 216 221 220 217 218 221 218 216 215 217 221 226 229 236 240 234 225 214 178
263 264 261 262 270 278 279 274 275 277 276 276 272 268 264 260 260 258 261 267 271 271 271 270 263 278 287 291 132 172 120 97 108 111 110 118 156 205 217 229 226 222 214 206 195 201 212 217 215 218 219 217 218 220 222 226 219 218 215 212 215 224 213 208 200 214 220 219 218 216 217 221 221 217 211 217 218 220 224 223 221 197 171 173 167
264 263 261 265 269 269 269 273 277 278 275 272 273 275 276 277 270 261 262 267 269 270 272 277 270 271 282 348 143 128 125 195 212 221 196 197 193 201 215 220 227 229 230 222 193 196 212 213 213 211 214 217 218 215 216 219 217 216 210 211 217 219 212 214 217 221 221 223 224 222 221 223 220 212 206 211 218 219 222 205 174 171 193 173 175
270 276 273 267 270 265 271 276 275 274 274 279 277 276 276 277 276 274 272 273 273 275 275 275 279 275 270 165 160 159 215 218 222 221 217 202 202 205 212 222 226 230 228 224 214 207 210 217 214 213 213 217 219 218 216 217 217 211 206 216 218 216 212 209 210 219 221 218 219 218 220 220 213 206 203 199 209 204 197 179 172 199 212 211 198
273 274 276 275 270 274 272 270 272 273 278 278 279 281 283 283 284 293 295 285 280 277 272 267 270 320 31 356 349 300 235 247 254 251 248 241 222 202 206 218 228 236 243 236 224 221 217 215 211 212 209 202 210 210 213 211 215 217 224 218 217 222 222 212 214 221 218 211 213 216 216 210 206 206 203 200 187 189 201 186 186 203 210 207 191
274 274 277 273 264 267 271 276 278 285 287 285 287 292 293 295 302 307 294 287 284 287 284 291 3 47 16 14 33 74 341 333 355 354 356 8 19 32 34 39 13 305 272 264 268 249 235 218 215 209 206 202 205 213 213 214 211 216 227 233 228 224 224 218 214 209 210 209 210 213 211 203 193 194 196 184 196 194 188 200 201 187 193 193 191
277 279 277 273 272 271 276 280 287 289 286 287 293 297 302 305 307 314 311 309 310 322 344 9 6 10 32 25 30 45 59 49 49 47 45 44 41 38 27 11 349 332 323 312 297 272 268 269 276 291 304 310 303 275 233 223 206 209 220 224 220 211 201 198 199 198 196 196 195 180 177 167 158 155 153 168 160 154 157 157 157 161 172 179 173
277 277 275 274 274 278 278 287 290 289 288 297 304 307 320 325 328 335 339 327 328 354 21 24 21 26 33 31 35 52 54 51 51 51 50 48 44 38 29 18 11 3 358 354 352 336 295 264 181 144 76 53 53 61 351 334 312 274 233 231 211 184 166 161 165 166 164 153 153 156 154 142 135 140 143 158 159 155 151 149 143 153 160 153 149
267 265 268 271 273 276 282 293 295 298 303 306 308 323 343 350 342 347 352 347 350 9 24 34 39 48 47 47 50 54 56 56 56 55 52 49 45 38 33 27 23 21 20 16 11 8 6 9 13 62 112 82 63 64 102 186 198 359 292 232 172 156 162 158 157 149 146 146 140 134 126 114 121 123 122 122 108 109 110 114 123 124 127 128 142
258 259 261 261 269 275 288 296 298 304 310 310 319 348 6 9 6 7 9 12 17 23 30 39 47 53 56 58 59 60 58 59 56 55 55 51 48 44 39 39 35 30 27 23 18 17 15 10 7 7 26 42 82 119 100 58 34 63 85 44 100 131 131 128 130 134 139 137 139 134 123 113 99 93 92 86 65 51 70 66 59 56 72 78 72
256 250 252 254 256 274 296 303 309 310 313 321 349 8 30 29 32 30 30 35 37 39 42 48 52 56 60 61 63 64 64 62 60 55 53 53 52 50 44 42 45 43 33 29 28 25 19 17 14 13 9 9 3 351 357 69 126 106 68 111 134 135 164 153 144 142 143 144 139 129 123 122 117 113 102 98 96 92 90 84 83 88 87 85 99
252 246 244 244 248 250 263 335 330 336 354 357 20 31 41 46 41 36 32 30 39 47 55 58 60 65 69 69 68 69 69 67 65 65 60 56 50 47 47 49 47 39 34 32 35 34 31 27 22 16 10 6 4 6 353 14 77 94 87 76 71 89 101 111 101 84 60 57 79 111 124 124 123 118 117 120 121 123 113 107 101 94 91 96 92
241 238 230 219 185 158 67 45 40 41 28 41 49 55 60 62 59 52 48 48 50 56 61 64 66 68 73 75 78 76 75 73 71 68 64 60 54 51 51 54 52 47 44 41 36 34 33 29 26 23 19 11 356 357 349 336 357 41 57 41 80 88 87 88 93 95 95 91 79 72 67 70 81 93 108 113 115 112 105 100 97 96 94 85 85
233 219 199 165 133 110 87 79 74 69 70 79 78 79 74 74 71 70 66 65 64 64 65 65 68 69 73 76 79 80 78 76 75 74 71 69 65 64 60 59 57 53 50 46 40 35 33 28 26 24 22 11 360 8 10 351 352 22 48 59 66 73 76 79 79 85 88 86 86 83 89 90 89 80 72 73 80 89 92 97 99 100 97 93 86
189 156 138 121 107 92 87 86 83 87 91 90 91 91 86 84 82 80 76 71 69 68 69 72 75 76 79 81 84 86 88 88 88 90 88 87 91 95 97 95 94 91 83 79 73 62 51 43 30 16 16 25 24 28 34 27 16 25 35 53 45 39 51 64 74 79 82 83 82 80 76 76 81 86 83 82 79 79 82 89 91 93 94 91 87